<?xml version="1.0"?>
<gpx xmlns="http://www.topografix.com/GPX/1/1" xmlns:xsi="http://www.w3.org/2001/XMLSchema-instance" version="1.1" creator="GPX RubyGem 1.0.0 -- http://dougfales.github.io/gpx/" xsi:schemaLocation="http://www.topografix.com/GPX/1/1 http://www.topografix.com/GPX/1/1/gpx.xsd">
  <metadata>
    <name/>
    <time>2026-05-08T01:43:21+00:00</time>
    <bound minlat="90.0" minlon="180.0" maxlat="-90.0" maxlon="-180.0"/>
  </metadata>
  <trk>
    <name/>
    <trkseg>
      <trkpt lat="46.572296" lon="8.415186">
        <time>1970-01-01T00:00:00+00:00</time>
        <ele>2428.0</ele>
      </trkpt>
      <trkpt lat="46.572189" lon="8.415109">
        <time>1970-01-01T00:00:00+00:00</time>
        <ele>2427.0</ele>
      </trkpt>
      <trkpt lat="46.572113" lon="8.415016">
        <time>1970-01-01T00:00:00+00:00</time>
        <ele>2427.0</ele>
      </trkpt>
      <trkpt lat="46.572021" lon="8.414958">
        <time>1970-01-01T00:00:00+00:00</time>
        <ele>2425.0</ele>
      </trkpt>
      <trkpt lat="46.571965" lon="8.414978">
        <time>1970-01-01T00:00:00+00:00</time>
        <ele>2424.0</ele>
      </trkpt>
      <trkpt lat="46.571928" lon="8.415065">
        <time>1970-01-01T00:00:00+00:00</time>
        <ele>2422.0</ele>
      </trkpt>
      <trkpt lat="46.57193" lon="8.415223">
        <time>1970-01-01T00:00:00+00:00</time>
        <ele>2422.0</ele>
      </trkpt>
      <trkpt lat="46.572134" lon="8.416409">
        <time>1970-01-01T00:00:00+00:00</time>
        <ele>2423.0</ele>
      </trkpt>
      <trkpt lat="46.571881" lon="8.416416">
        <time>1970-01-01T00:00:00+00:00</time>
        <ele>2427.0</ele>
      </trkpt>
      <trkpt lat="46.571791" lon="8.416726">
        <time>1970-01-01T00:00:00+00:00</time>
        <ele>2433.0</ele>
      </trkpt>
      <trkpt lat="46.571771" lon="8.416794">
        <time>1970-01-01T00:00:00+00:00</time>
        <ele>2435.0</ele>
      </trkpt>
      <trkpt lat="46.571798" lon="8.417381">
        <time>1970-01-01T00:00:00+00:00</time>
        <ele>2434.0</ele>
      </trkpt>
      <trkpt lat="46.571491" lon="8.418723">
        <time>1970-01-01T00:00:00+00:00</time>
        <ele>2437.0</ele>
      </trkpt>
      <trkpt lat="46.571472" lon="8.419046">
        <time>1970-01-01T00:00:00+00:00</time>
        <ele>2438.0</ele>
      </trkpt>
      <trkpt lat="46.571541" lon="8.419614">
        <time>1970-01-01T00:00:00+00:00</time>
        <ele>2438.0</ele>
      </trkpt>
      <trkpt lat="46.571479" lon="8.419927">
        <time>1970-01-01T00:00:00+00:00</time>
        <ele>2439.0</ele>
      </trkpt>
      <trkpt lat="46.571492" lon="8.420241">
        <time>1970-01-01T00:00:00+00:00</time>
        <ele>2434.0</ele>
      </trkpt>
      <trkpt lat="46.571387" lon="8.420441">
        <time>1970-01-01T00:00:00+00:00</time>
        <ele>2437.0</ele>
      </trkpt>
      <trkpt lat="46.571197" lon="8.421574">
        <time>1970-01-01T00:00:00+00:00</time>
        <ele>2435.0</ele>
      </trkpt>
      <trkpt lat="46.571124" lon="8.421815">
        <time>1970-01-01T00:00:00+00:00</time>
        <ele>2436.0</ele>
      </trkpt>
      <trkpt lat="46.570938" lon="8.422162">
        <time>1970-01-01T00:00:00+00:00</time>
        <ele>2442.0</ele>
      </trkpt>
      <trkpt lat="46.570912" lon="8.422343">
        <time>1970-01-01T00:00:00+00:00</time>
        <ele>2440.0</ele>
      </trkpt>
      <trkpt lat="46.570769" lon="8.422583">
        <time>1970-01-01T00:00:00+00:00</time>
        <ele>2440.0</ele>
      </trkpt>
      <trkpt lat="46.570516" lon="8.422763">
        <time>1970-01-01T00:00:00+00:00</time>
        <ele>2446.0</ele>
      </trkpt>
      <trkpt lat="46.570032" lon="8.423323">
        <time>1970-01-01T00:00:00+00:00</time>
        <ele>2452.0</ele>
      </trkpt>
      <trkpt lat="46.569756" lon="8.423523">
        <time>1970-01-01T00:00:00+00:00</time>
        <ele>2460.0</ele>
      </trkpt>
      <trkpt lat="46.569786" lon="8.423558">
        <time>1970-01-01T00:00:00+00:00</time>
        <ele>2457.0</ele>
      </trkpt>
      <trkpt lat="46.569509" lon="8.423929">
        <time>1970-01-01T00:00:00+00:00</time>
        <ele>2454.0</ele>
      </trkpt>
      <trkpt lat="46.56912" lon="8.423985">
        <time>1970-01-01T00:00:00+00:00</time>
        <ele>2458.0</ele>
      </trkpt>
      <trkpt lat="46.568638" lon="8.424263">
        <time>1970-01-01T00:00:00+00:00</time>
        <ele>2464.0</ele>
      </trkpt>
      <trkpt lat="46.568413" lon="8.424472">
        <time>1970-01-01T00:00:00+00:00</time>
        <ele>2471.0</ele>
      </trkpt>
      <trkpt lat="46.567851" lon="8.425598">
        <time>1970-01-01T00:00:00+00:00</time>
        <ele>2482.0</ele>
      </trkpt>
      <trkpt lat="46.567754" lon="8.425981">
        <time>1970-01-01T00:00:00+00:00</time>
        <ele>2480.0</ele>
      </trkpt>
      <trkpt lat="46.567459" lon="8.426363">
        <time>1970-01-01T00:00:00+00:00</time>
        <ele>2490.0</ele>
      </trkpt>
      <trkpt lat="46.567072" lon="8.427115">
        <time>1970-01-01T00:00:00+00:00</time>
        <ele>2500.0</ele>
      </trkpt>
      <trkpt lat="46.566962" lon="8.427728">
        <time>1970-01-01T00:00:00+00:00</time>
        <ele>2505.0</ele>
      </trkpt>
      <trkpt lat="46.56678" lon="8.428327">
        <time>1970-01-01T00:00:00+00:00</time>
        <ele>2516.0</ele>
      </trkpt>
      <trkpt lat="46.566816" lon="8.428475">
        <time>1970-01-01T00:00:00+00:00</time>
        <ele>2514.0</ele>
      </trkpt>
      <trkpt lat="46.566788" lon="8.428633">
        <time>1970-01-01T00:00:00+00:00</time>
        <ele>2516.0</ele>
      </trkpt>
      <trkpt lat="46.566637" lon="8.428919">
        <time>1970-01-01T00:00:00+00:00</time>
        <ele>2524.0</ele>
      </trkpt>
      <trkpt lat="46.566593" lon="8.429503">
        <time>1970-01-01T00:00:00+00:00</time>
        <ele>2524.0</ele>
      </trkpt>
      <trkpt lat="46.566278" lon="8.430432">
        <time>1970-01-01T00:00:00+00:00</time>
        <ele>2536.0</ele>
      </trkpt>
      <trkpt lat="46.566322" lon="8.430708">
        <time>1970-01-01T00:00:00+00:00</time>
        <ele>2538.0</ele>
      </trkpt>
      <trkpt lat="46.566284" lon="8.431805">
        <time>1970-01-01T00:00:00+00:00</time>
        <ele>2555.0</ele>
      </trkpt>
      <trkpt lat="46.56633" lon="8.432423">
        <time>1970-01-01T00:00:00+00:00</time>
        <ele>2559.0</ele>
      </trkpt>
      <trkpt lat="46.566051" lon="8.432213">
        <time>1970-01-01T00:00:00+00:00</time>
        <ele>2570.0</ele>
      </trkpt>
      <trkpt lat="46.566078" lon="8.432568">
        <time>1970-01-01T00:00:00+00:00</time>
        <ele>2574.0</ele>
      </trkpt>
      <trkpt lat="46.565879" lon="8.432335">
        <time>1970-01-01T00:00:00+00:00</time>
        <ele>2579.0</ele>
      </trkpt>
      <trkpt lat="46.565703" lon="8.432579">
        <time>1970-01-01T00:00:00+00:00</time>
        <ele>2592.0</ele>
      </trkpt>
      <trkpt lat="46.566173" lon="8.43438">
        <time>1970-01-01T00:00:00+00:00</time>
        <ele>2607.0</ele>
      </trkpt>
      <trkpt lat="46.566187" lon="8.43457">
        <time>1970-01-01T00:00:00+00:00</time>
        <ele>2607.0</ele>
      </trkpt>
      <trkpt lat="46.566049" lon="8.434812">
        <time>1970-01-01T00:00:00+00:00</time>
        <ele>2611.0</ele>
      </trkpt>
      <trkpt lat="46.565768" lon="8.434721">
        <time>1970-01-01T00:00:00+00:00</time>
        <ele>2616.0</ele>
      </trkpt>
      <trkpt lat="46.565695" lon="8.434899">
        <time>1970-01-01T00:00:00+00:00</time>
        <ele>2618.0</ele>
      </trkpt>
      <trkpt lat="46.565356" lon="8.434206">
        <time>1970-01-01T00:00:00+00:00</time>
        <ele>2621.0</ele>
      </trkpt>
      <trkpt lat="46.564862" lon="8.433328">
        <time>1970-01-01T00:00:00+00:00</time>
        <ele>2627.0</ele>
      </trkpt>
      <trkpt lat="46.564746" lon="8.432867">
        <time>1970-01-01T00:00:00+00:00</time>
        <ele>2631.0</ele>
      </trkpt>
      <trkpt lat="46.564104" lon="8.432161">
        <time>1970-01-01T00:00:00+00:00</time>
        <ele>2641.0</ele>
      </trkpt>
      <trkpt lat="46.563906" lon="8.432657">
        <time>1970-01-01T00:00:00+00:00</time>
        <ele>2644.0</ele>
      </trkpt>
      <trkpt lat="46.563851" lon="8.43312">
        <time>1970-01-01T00:00:00+00:00</time>
        <ele>2643.0</ele>
      </trkpt>
      <trkpt lat="46.563851" lon="8.433551">
        <time>1970-01-01T00:00:00+00:00</time>
        <ele>2643.0</ele>
      </trkpt>
      <trkpt lat="46.563654" lon="8.433839">
        <time>1970-01-01T00:00:00+00:00</time>
        <ele>2651.0</ele>
      </trkpt>
      <trkpt lat="46.563434" lon="8.433839">
        <time>1970-01-01T00:00:00+00:00</time>
        <ele>2656.0</ele>
      </trkpt>
      <trkpt lat="46.563269" lon="8.434398">
        <time>1970-01-01T00:00:00+00:00</time>
        <ele>2666.0</ele>
      </trkpt>
      <trkpt lat="46.563335" lon="8.434989">
        <time>1970-01-01T00:00:00+00:00</time>
        <ele>2675.0</ele>
      </trkpt>
      <trkpt lat="46.563555" lon="8.435548">
        <time>1970-01-01T00:00:00+00:00</time>
        <ele>2684.0</ele>
      </trkpt>
      <trkpt lat="46.563917" lon="8.436043">
        <time>1970-01-01T00:00:00+00:00</time>
        <ele>2692.0</ele>
      </trkpt>
      <trkpt lat="46.563994" lon="8.436331">
        <time>1970-01-01T00:00:00+00:00</time>
        <ele>2704.0</ele>
      </trkpt>
      <trkpt lat="46.563851" lon="8.436778">
        <time>1970-01-01T00:00:00+00:00</time>
        <ele>2717.0</ele>
      </trkpt>
      <trkpt lat="46.564115" lon="8.437501">
        <time>1970-01-01T00:00:00+00:00</time>
        <ele>2710.0</ele>
      </trkpt>
      <trkpt lat="46.564517" lon="8.437624">
        <time>1970-01-01T00:00:00+00:00</time>
        <ele>2711.0</ele>
      </trkpt>
      <trkpt lat="46.564732" lon="8.437829">
        <time>1970-01-01T00:00:00+00:00</time>
        <ele>2706.0</ele>
      </trkpt>
      <trkpt lat="46.564821" lon="8.437947">
        <time>1970-01-01T00:00:00+00:00</time>
        <ele>2704.0</ele>
      </trkpt>
      <trkpt lat="46.564921" lon="8.437915">
        <time>1970-01-01T00:00:00+00:00</time>
        <ele>2707.0</ele>
      </trkpt>
      <trkpt lat="46.565109" lon="8.438">
        <time>1970-01-01T00:00:00+00:00</time>
        <ele>2709.0</ele>
      </trkpt>
      <trkpt lat="46.565264" lon="8.438076">
        <time>1970-01-01T00:00:00+00:00</time>
        <ele>2710.0</ele>
      </trkpt>
      <trkpt lat="46.565367" lon="8.43821">
        <time>1970-01-01T00:00:00+00:00</time>
        <ele>2709.0</ele>
      </trkpt>
      <trkpt lat="46.565463" lon="8.438258">
        <time>1970-01-01T00:00:00+00:00</time>
        <ele>2711.0</ele>
      </trkpt>
      <trkpt lat="46.5655" lon="8.43843">
        <time>1970-01-01T00:00:00+00:00</time>
        <ele>2711.0</ele>
      </trkpt>
      <trkpt lat="46.565691" lon="8.438741">
        <time>1970-01-01T00:00:00+00:00</time>
        <ele>2710.0</ele>
      </trkpt>
      <trkpt lat="46.565977" lon="8.439029">
        <time>1970-01-01T00:00:00+00:00</time>
        <ele>2715.0</ele>
      </trkpt>
      <trkpt lat="46.566064" lon="8.439143">
        <time>1970-01-01T00:00:00+00:00</time>
        <ele>2715.0</ele>
      </trkpt>
      <trkpt lat="46.566152" lon="8.439336">
        <time>1970-01-01T00:00:00+00:00</time>
        <ele>2715.0</ele>
      </trkpt>
      <trkpt lat="46.566296" lon="8.439567">
        <time>1970-01-01T00:00:00+00:00</time>
        <ele>2715.0</ele>
      </trkpt>
      <trkpt lat="46.566407" lon="8.439701">
        <time>1970-01-01T00:00:00+00:00</time>
        <ele>2719.0</ele>
      </trkpt>
      <trkpt lat="46.56651" lon="8.439878">
        <time>1970-01-01T00:00:00+00:00</time>
        <ele>2722.0</ele>
      </trkpt>
      <trkpt lat="46.566647" lon="8.440044">
        <time>1970-01-01T00:00:00+00:00</time>
        <ele>2723.0</ele>
      </trkpt>
      <trkpt lat="46.566979" lon="8.440312">
        <time>1970-01-01T00:00:00+00:00</time>
        <ele>2728.0</ele>
      </trkpt>
      <trkpt lat="46.567104" lon="8.440549">
        <time>1970-01-01T00:00:00+00:00</time>
        <ele>2731.0</ele>
      </trkpt>
      <trkpt lat="46.567196" lon="8.440613">
        <time>1970-01-01T00:00:00+00:00</time>
        <ele>2733.0</ele>
      </trkpt>
      <trkpt lat="46.56741" lon="8.440897">
        <time>1970-01-01T00:00:00+00:00</time>
        <ele>2728.0</ele>
      </trkpt>
      <trkpt lat="46.567532" lon="8.440983">
        <time>1970-01-01T00:00:00+00:00</time>
        <ele>2729.0</ele>
      </trkpt>
      <trkpt lat="46.567683" lon="8.441037">
        <time>1970-01-01T00:00:00+00:00</time>
        <ele>2732.0</ele>
      </trkpt>
      <trkpt lat="46.567794" lon="8.441205">
        <time>1970-01-01T00:00:00+00:00</time>
        <ele>2733.0</ele>
      </trkpt>
      <trkpt lat="46.56791" lon="8.441261">
        <time>1970-01-01T00:00:00+00:00</time>
        <ele>2735.0</ele>
      </trkpt>
      <trkpt lat="46.567974" lon="8.44138">
        <time>1970-01-01T00:00:00+00:00</time>
        <ele>2735.0</ele>
      </trkpt>
      <trkpt lat="46.568117" lon="8.44151">
        <time>1970-01-01T00:00:00+00:00</time>
        <ele>2734.0</ele>
      </trkpt>
      <trkpt lat="46.568244" lon="8.441557">
        <time>1970-01-01T00:00:00+00:00</time>
        <ele>2734.0</ele>
      </trkpt>
      <trkpt lat="46.568485" lon="8.441738">
        <time>1970-01-01T00:00:00+00:00</time>
        <ele>2731.0</ele>
      </trkpt>
      <trkpt lat="46.568649" lon="8.441965">
        <time>1970-01-01T00:00:00+00:00</time>
        <ele>2729.0</ele>
      </trkpt>
      <trkpt lat="46.568705" lon="8.442174">
        <time>1970-01-01T00:00:00+00:00</time>
        <ele>2726.0</ele>
      </trkpt>
      <trkpt lat="46.568775" lon="8.442297">
        <time>1970-01-01T00:00:00+00:00</time>
        <ele>2724.0</ele>
      </trkpt>
      <trkpt lat="46.568874" lon="8.442356">
        <time>1970-01-01T00:00:00+00:00</time>
        <ele>2725.0</ele>
      </trkpt>
      <trkpt lat="46.568955" lon="8.442442">
        <time>1970-01-01T00:00:00+00:00</time>
        <ele>2725.0</ele>
      </trkpt>
      <trkpt lat="46.568996" lon="8.442566">
        <time>1970-01-01T00:00:00+00:00</time>
        <ele>2724.0</ele>
      </trkpt>
      <trkpt lat="46.569055" lon="8.442668">
        <time>1970-01-01T00:00:00+00:00</time>
        <ele>2725.0</ele>
      </trkpt>
      <trkpt lat="46.569106" lon="8.442909">
        <time>1970-01-01T00:00:00+00:00</time>
        <ele>2724.0</ele>
      </trkpt>
      <trkpt lat="46.569261" lon="8.443193">
        <time>1970-01-01T00:00:00+00:00</time>
        <ele>2727.0</ele>
      </trkpt>
      <trkpt lat="46.569427" lon="8.443338">
        <time>1970-01-01T00:00:00+00:00</time>
        <ele>2730.0</ele>
      </trkpt>
      <trkpt lat="46.569597" lon="8.443789">
        <time>1970-01-01T00:00:00+00:00</time>
        <ele>2731.0</ele>
      </trkpt>
      <trkpt lat="46.569726" lon="8.444009">
        <time>1970-01-01T00:00:00+00:00</time>
        <ele>2730.0</ele>
      </trkpt>
      <trkpt lat="46.569807" lon="8.444084">
        <time>1970-01-01T00:00:00+00:00</time>
        <ele>2729.0</ele>
      </trkpt>
      <trkpt lat="46.569859" lon="8.444186">
        <time>1970-01-01T00:00:00+00:00</time>
        <ele>2727.0</ele>
      </trkpt>
      <trkpt lat="46.570032" lon="8.444314">
        <time>1970-01-01T00:00:00+00:00</time>
        <ele>2725.0</ele>
      </trkpt>
      <trkpt lat="46.570099" lon="8.444432">
        <time>1970-01-01T00:00:00+00:00</time>
        <ele>2723.0</ele>
      </trkpt>
      <trkpt lat="46.57018" lon="8.444518">
        <time>1970-01-01T00:00:00+00:00</time>
        <ele>2723.0</ele>
      </trkpt>
      <trkpt lat="46.570248" lon="8.444796">
        <time>1970-01-01T00:00:00+00:00</time>
        <ele>2720.0</ele>
      </trkpt>
      <trkpt lat="46.570346" lon="8.444856">
        <time>1970-01-01T00:00:00+00:00</time>
        <ele>2722.0</ele>
      </trkpt>
      <trkpt lat="46.57039" lon="8.44498">
        <time>1970-01-01T00:00:00+00:00</time>
        <ele>2722.0</ele>
      </trkpt>
      <trkpt lat="46.570405" lon="8.44513">
        <time>1970-01-01T00:00:00+00:00</time>
        <ele>2720.0</ele>
      </trkpt>
      <trkpt lat="46.570489" lon="8.445371">
        <time>1970-01-01T00:00:00+00:00</time>
        <ele>2720.0</ele>
      </trkpt>
      <trkpt lat="46.570504" lon="8.445564">
        <time>1970-01-01T00:00:00+00:00</time>
        <ele>2720.0</ele>
      </trkpt>
      <trkpt lat="46.570545" lon="8.445666">
        <time>1970-01-01T00:00:00+00:00</time>
        <ele>2721.0</ele>
      </trkpt>
      <trkpt lat="46.570552" lon="8.445913">
        <time>1970-01-01T00:00:00+00:00</time>
        <ele>2722.0</ele>
      </trkpt>
      <trkpt lat="46.570607" lon="8.446192">
        <time>1970-01-01T00:00:00+00:00</time>
        <ele>2725.0</ele>
      </trkpt>
      <trkpt lat="46.570615" lon="8.446508">
        <time>1970-01-01T00:00:00+00:00</time>
        <ele>2725.0</ele>
      </trkpt>
      <trkpt lat="46.570655" lon="8.447013">
        <time>1970-01-01T00:00:00+00:00</time>
        <ele>2724.0</ele>
      </trkpt>
      <trkpt lat="46.570718" lon="8.447388">
        <time>1970-01-01T00:00:00+00:00</time>
        <ele>2726.0</ele>
      </trkpt>
      <trkpt lat="46.570729" lon="8.447662">
        <time>1970-01-01T00:00:00+00:00</time>
        <ele>2726.0</ele>
      </trkpt>
      <trkpt lat="46.570648" lon="8.448584">
        <time>1970-01-01T00:00:00+00:00</time>
        <ele>2725.0</ele>
      </trkpt>
      <trkpt lat="46.570725" lon="8.448821">
        <time>1970-01-01T00:00:00+00:00</time>
        <ele>2727.0</ele>
      </trkpt>
      <trkpt lat="46.570737" lon="8.449078">
        <time>1970-01-01T00:00:00+00:00</time>
        <ele>2727.0</ele>
      </trkpt>
      <trkpt lat="46.570696" lon="8.44947">
        <time>1970-01-01T00:00:00+00:00</time>
        <ele>2725.0</ele>
      </trkpt>
      <trkpt lat="46.570713" lon="8.449635">
        <time>1970-01-01T00:00:00+00:00</time>
        <ele>2724.0</ele>
      </trkpt>
      <trkpt lat="46.570685" lon="8.44992">
        <time>1970-01-01T00:00:00+00:00</time>
        <ele>2722.0</ele>
      </trkpt>
      <trkpt lat="46.570593" lon="8.450124">
        <time>1970-01-01T00:00:00+00:00</time>
        <ele>2721.0</ele>
      </trkpt>
      <trkpt lat="46.570534" lon="8.45043">
        <time>1970-01-01T00:00:00+00:00</time>
        <ele>2720.0</ele>
      </trkpt>
      <trkpt lat="46.570525" lon="8.450524">
        <time>1970-01-01T00:00:00+00:00</time>
        <ele>2720.0</ele>
      </trkpt>
      <trkpt lat="46.570525" lon="8.450524">
        <time>1970-01-01T00:00:00+00:00</time>
        <ele>2720.0</ele>
      </trkpt>
      <trkpt lat="46.570534" lon="8.45043">
        <time>1970-01-01T00:00:00+00:00</time>
        <ele>2720.0</ele>
      </trkpt>
      <trkpt lat="46.570593" lon="8.450124">
        <time>1970-01-01T00:00:00+00:00</time>
        <ele>2721.0</ele>
      </trkpt>
      <trkpt lat="46.570685" lon="8.44992">
        <time>1970-01-01T00:00:00+00:00</time>
        <ele>2722.0</ele>
      </trkpt>
      <trkpt lat="46.570713" lon="8.449635">
        <time>1970-01-01T00:00:00+00:00</time>
        <ele>2724.0</ele>
      </trkpt>
      <trkpt lat="46.570696" lon="8.44947">
        <time>1970-01-01T00:00:00+00:00</time>
        <ele>2725.0</ele>
      </trkpt>
      <trkpt lat="46.570737" lon="8.449078">
        <time>1970-01-01T00:00:00+00:00</time>
        <ele>2727.0</ele>
      </trkpt>
      <trkpt lat="46.570725" lon="8.448821">
        <time>1970-01-01T00:00:00+00:00</time>
        <ele>2727.0</ele>
      </trkpt>
      <trkpt lat="46.570648" lon="8.448584">
        <time>1970-01-01T00:00:00+00:00</time>
        <ele>2725.0</ele>
      </trkpt>
      <trkpt lat="46.570729" lon="8.447662">
        <time>1970-01-01T00:00:00+00:00</time>
        <ele>2726.0</ele>
      </trkpt>
      <trkpt lat="46.570718" lon="8.447388">
        <time>1970-01-01T00:00:00+00:00</time>
        <ele>2726.0</ele>
      </trkpt>
      <trkpt lat="46.570655" lon="8.447013">
        <time>1970-01-01T00:00:00+00:00</time>
        <ele>2724.0</ele>
      </trkpt>
      <trkpt lat="46.570615" lon="8.446508">
        <time>1970-01-01T00:00:00+00:00</time>
        <ele>2725.0</ele>
      </trkpt>
      <trkpt lat="46.570607" lon="8.446192">
        <time>1970-01-01T00:00:00+00:00</time>
        <ele>2725.0</ele>
      </trkpt>
      <trkpt lat="46.570552" lon="8.445913">
        <time>1970-01-01T00:00:00+00:00</time>
        <ele>2722.0</ele>
      </trkpt>
      <trkpt lat="46.570545" lon="8.445666">
        <time>1970-01-01T00:00:00+00:00</time>
        <ele>2721.0</ele>
      </trkpt>
      <trkpt lat="46.570504" lon="8.445564">
        <time>1970-01-01T00:00:00+00:00</time>
        <ele>2720.0</ele>
      </trkpt>
      <trkpt lat="46.570489" lon="8.445371">
        <time>1970-01-01T00:00:00+00:00</time>
        <ele>2720.0</ele>
      </trkpt>
      <trkpt lat="46.570405" lon="8.44513">
        <time>1970-01-01T00:00:00+00:00</time>
        <ele>2720.0</ele>
      </trkpt>
      <trkpt lat="46.57039" lon="8.44498">
        <time>1970-01-01T00:00:00+00:00</time>
        <ele>2722.0</ele>
      </trkpt>
      <trkpt lat="46.570346" lon="8.444856">
        <time>1970-01-01T00:00:00+00:00</time>
        <ele>2722.0</ele>
      </trkpt>
      <trkpt lat="46.570248" lon="8.444796">
        <time>1970-01-01T00:00:00+00:00</time>
        <ele>2720.0</ele>
      </trkpt>
      <trkpt lat="46.57018" lon="8.444518">
        <time>1970-01-01T00:00:00+00:00</time>
        <ele>2723.0</ele>
      </trkpt>
      <trkpt lat="46.570099" lon="8.444432">
        <time>1970-01-01T00:00:00+00:00</time>
        <ele>2723.0</ele>
      </trkpt>
      <trkpt lat="46.570032" lon="8.444314">
        <time>1970-01-01T00:00:00+00:00</time>
        <ele>2725.0</ele>
      </trkpt>
      <trkpt lat="46.569859" lon="8.444186">
        <time>1970-01-01T00:00:00+00:00</time>
        <ele>2727.0</ele>
      </trkpt>
      <trkpt lat="46.569807" lon="8.444084">
        <time>1970-01-01T00:00:00+00:00</time>
        <ele>2729.0</ele>
      </trkpt>
      <trkpt lat="46.569726" lon="8.444009">
        <time>1970-01-01T00:00:00+00:00</time>
        <ele>2730.0</ele>
      </trkpt>
      <trkpt lat="46.569597" lon="8.443789">
        <time>1970-01-01T00:00:00+00:00</time>
        <ele>2731.0</ele>
      </trkpt>
      <trkpt lat="46.569427" lon="8.443338">
        <time>1970-01-01T00:00:00+00:00</time>
        <ele>2730.0</ele>
      </trkpt>
      <trkpt lat="46.569261" lon="8.443193">
        <time>1970-01-01T00:00:00+00:00</time>
        <ele>2727.0</ele>
      </trkpt>
      <trkpt lat="46.569106" lon="8.442909">
        <time>1970-01-01T00:00:00+00:00</time>
        <ele>2724.0</ele>
      </trkpt>
      <trkpt lat="46.569055" lon="8.442668">
        <time>1970-01-01T00:00:00+00:00</time>
        <ele>2725.0</ele>
      </trkpt>
      <trkpt lat="46.568996" lon="8.442566">
        <time>1970-01-01T00:00:00+00:00</time>
        <ele>2724.0</ele>
      </trkpt>
      <trkpt lat="46.568955" lon="8.442442">
        <time>1970-01-01T00:00:00+00:00</time>
        <ele>2725.0</ele>
      </trkpt>
      <trkpt lat="46.568874" lon="8.442356">
        <time>1970-01-01T00:00:00+00:00</time>
        <ele>2725.0</ele>
      </trkpt>
      <trkpt lat="46.568775" lon="8.442297">
        <time>1970-01-01T00:00:00+00:00</time>
        <ele>2724.0</ele>
      </trkpt>
      <trkpt lat="46.568705" lon="8.442174">
        <time>1970-01-01T00:00:00+00:00</time>
        <ele>2726.0</ele>
      </trkpt>
      <trkpt lat="46.568649" lon="8.441965">
        <time>1970-01-01T00:00:00+00:00</time>
        <ele>2729.0</ele>
      </trkpt>
      <trkpt lat="46.568485" lon="8.441738">
        <time>1970-01-01T00:00:00+00:00</time>
        <ele>2731.0</ele>
      </trkpt>
      <trkpt lat="46.568244" lon="8.441557">
        <time>1970-01-01T00:00:00+00:00</time>
        <ele>2734.0</ele>
      </trkpt>
      <trkpt lat="46.568117" lon="8.44151">
        <time>1970-01-01T00:00:00+00:00</time>
        <ele>2734.0</ele>
      </trkpt>
      <trkpt lat="46.567974" lon="8.44138">
        <time>1970-01-01T00:00:00+00:00</time>
        <ele>2735.0</ele>
      </trkpt>
      <trkpt lat="46.56791" lon="8.441261">
        <time>1970-01-01T00:00:00+00:00</time>
        <ele>2735.0</ele>
      </trkpt>
      <trkpt lat="46.567794" lon="8.441205">
        <time>1970-01-01T00:00:00+00:00</time>
        <ele>2733.0</ele>
      </trkpt>
      <trkpt lat="46.567683" lon="8.441037">
        <time>1970-01-01T00:00:00+00:00</time>
        <ele>2732.0</ele>
      </trkpt>
      <trkpt lat="46.567532" lon="8.440983">
        <time>1970-01-01T00:00:00+00:00</time>
        <ele>2729.0</ele>
      </trkpt>
      <trkpt lat="46.56741" lon="8.440897">
        <time>1970-01-01T00:00:00+00:00</time>
        <ele>2728.0</ele>
      </trkpt>
      <trkpt lat="46.567196" lon="8.440613">
        <time>1970-01-01T00:00:00+00:00</time>
        <ele>2733.0</ele>
      </trkpt>
      <trkpt lat="46.567104" lon="8.440549">
        <time>1970-01-01T00:00:00+00:00</time>
        <ele>2731.0</ele>
      </trkpt>
      <trkpt lat="46.566979" lon="8.440312">
        <time>1970-01-01T00:00:00+00:00</time>
        <ele>2728.0</ele>
      </trkpt>
      <trkpt lat="46.566647" lon="8.440044">
        <time>1970-01-01T00:00:00+00:00</time>
        <ele>2723.0</ele>
      </trkpt>
      <trkpt lat="46.56651" lon="8.439878">
        <time>1970-01-01T00:00:00+00:00</time>
        <ele>2722.0</ele>
      </trkpt>
      <trkpt lat="46.566407" lon="8.439701">
        <time>1970-01-01T00:00:00+00:00</time>
        <ele>2719.0</ele>
      </trkpt>
      <trkpt lat="46.566296" lon="8.439567">
        <time>1970-01-01T00:00:00+00:00</time>
        <ele>2715.0</ele>
      </trkpt>
      <trkpt lat="46.566152" lon="8.439336">
        <time>1970-01-01T00:00:00+00:00</time>
        <ele>2715.0</ele>
      </trkpt>
      <trkpt lat="46.566064" lon="8.439143">
        <time>1970-01-01T00:00:00+00:00</time>
        <ele>2715.0</ele>
      </trkpt>
      <trkpt lat="46.565977" lon="8.439029">
        <time>1970-01-01T00:00:00+00:00</time>
        <ele>2715.0</ele>
      </trkpt>
      <trkpt lat="46.565691" lon="8.438741">
        <time>1970-01-01T00:00:00+00:00</time>
        <ele>2710.0</ele>
      </trkpt>
      <trkpt lat="46.5655" lon="8.43843">
        <time>1970-01-01T00:00:00+00:00</time>
        <ele>2711.0</ele>
      </trkpt>
      <trkpt lat="46.565463" lon="8.438258">
        <time>1970-01-01T00:00:00+00:00</time>
        <ele>2711.0</ele>
      </trkpt>
      <trkpt lat="46.565367" lon="8.43821">
        <time>1970-01-01T00:00:00+00:00</time>
        <ele>2709.0</ele>
      </trkpt>
      <trkpt lat="46.565264" lon="8.438076">
        <time>1970-01-01T00:00:00+00:00</time>
        <ele>2710.0</ele>
      </trkpt>
      <trkpt lat="46.565109" lon="8.438">
        <time>1970-01-01T00:00:00+00:00</time>
        <ele>2709.0</ele>
      </trkpt>
      <trkpt lat="46.564921" lon="8.437915">
        <time>1970-01-01T00:00:00+00:00</time>
        <ele>2707.0</ele>
      </trkpt>
      <trkpt lat="46.564821" lon="8.437947">
        <time>1970-01-01T00:00:00+00:00</time>
        <ele>2704.0</ele>
      </trkpt>
      <trkpt lat="46.564732" lon="8.437829">
        <time>1970-01-01T00:00:00+00:00</time>
        <ele>2706.0</ele>
      </trkpt>
      <trkpt lat="46.564517" lon="8.437624">
        <time>1970-01-01T00:00:00+00:00</time>
        <ele>2711.0</ele>
      </trkpt>
      <trkpt lat="46.564115" lon="8.437501">
        <time>1970-01-01T00:00:00+00:00</time>
        <ele>2710.0</ele>
      </trkpt>
      <trkpt lat="46.563851" lon="8.436778">
        <time>1970-01-01T00:00:00+00:00</time>
        <ele>2717.0</ele>
      </trkpt>
      <trkpt lat="46.563994" lon="8.436331">
        <time>1970-01-01T00:00:00+00:00</time>
        <ele>2704.0</ele>
      </trkpt>
      <trkpt lat="46.563917" lon="8.436043">
        <time>1970-01-01T00:00:00+00:00</time>
        <ele>2692.0</ele>
      </trkpt>
      <trkpt lat="46.563555" lon="8.435548">
        <time>1970-01-01T00:00:00+00:00</time>
        <ele>2684.0</ele>
      </trkpt>
      <trkpt lat="46.563335" lon="8.434989">
        <time>1970-01-01T00:00:00+00:00</time>
        <ele>2675.0</ele>
      </trkpt>
      <trkpt lat="46.563269" lon="8.434398">
        <time>1970-01-01T00:00:00+00:00</time>
        <ele>2666.0</ele>
      </trkpt>
      <trkpt lat="46.563434" lon="8.433839">
        <time>1970-01-01T00:00:00+00:00</time>
        <ele>2656.0</ele>
      </trkpt>
      <trkpt lat="46.563654" lon="8.433839">
        <time>1970-01-01T00:00:00+00:00</time>
        <ele>2651.0</ele>
      </trkpt>
      <trkpt lat="46.563851" lon="8.433551">
        <time>1970-01-01T00:00:00+00:00</time>
        <ele>2643.0</ele>
      </trkpt>
      <trkpt lat="46.563851" lon="8.43312">
        <time>1970-01-01T00:00:00+00:00</time>
        <ele>2643.0</ele>
      </trkpt>
      <trkpt lat="46.563906" lon="8.432657">
        <time>1970-01-01T00:00:00+00:00</time>
        <ele>2644.0</ele>
      </trkpt>
      <trkpt lat="46.564104" lon="8.432161">
        <time>1970-01-01T00:00:00+00:00</time>
        <ele>2641.0</ele>
      </trkpt>
      <trkpt lat="46.564746" lon="8.432867">
        <time>1970-01-01T00:00:00+00:00</time>
        <ele>2631.0</ele>
      </trkpt>
      <trkpt lat="46.564862" lon="8.433328">
        <time>1970-01-01T00:00:00+00:00</time>
        <ele>2627.0</ele>
      </trkpt>
      <trkpt lat="46.565356" lon="8.434206">
        <time>1970-01-01T00:00:00+00:00</time>
        <ele>2621.0</ele>
      </trkpt>
      <trkpt lat="46.565695" lon="8.434899">
        <time>1970-01-01T00:00:00+00:00</time>
        <ele>2618.0</ele>
      </trkpt>
      <trkpt lat="46.565768" lon="8.434721">
        <time>1970-01-01T00:00:00+00:00</time>
        <ele>2616.0</ele>
      </trkpt>
      <trkpt lat="46.566049" lon="8.434812">
        <time>1970-01-01T00:00:00+00:00</time>
        <ele>2611.0</ele>
      </trkpt>
      <trkpt lat="46.566187" lon="8.43457">
        <time>1970-01-01T00:00:00+00:00</time>
        <ele>2607.0</ele>
      </trkpt>
      <trkpt lat="46.566173" lon="8.43438">
        <time>1970-01-01T00:00:00+00:00</time>
        <ele>2607.0</ele>
      </trkpt>
      <trkpt lat="46.565703" lon="8.432579">
        <time>1970-01-01T00:00:00+00:00</time>
        <ele>2592.0</ele>
      </trkpt>
      <trkpt lat="46.565879" lon="8.432335">
        <time>1970-01-01T00:00:00+00:00</time>
        <ele>2579.0</ele>
      </trkpt>
      <trkpt lat="46.566078" lon="8.432568">
        <time>1970-01-01T00:00:00+00:00</time>
        <ele>2574.0</ele>
      </trkpt>
      <trkpt lat="46.566051" lon="8.432213">
        <time>1970-01-01T00:00:00+00:00</time>
        <ele>2570.0</ele>
      </trkpt>
      <trkpt lat="46.56633" lon="8.432423">
        <time>1970-01-01T00:00:00+00:00</time>
        <ele>2559.0</ele>
      </trkpt>
      <trkpt lat="46.566284" lon="8.431805">
        <time>1970-01-01T00:00:00+00:00</time>
        <ele>2555.0</ele>
      </trkpt>
      <trkpt lat="46.566322" lon="8.430708">
        <time>1970-01-01T00:00:00+00:00</time>
        <ele>2538.0</ele>
      </trkpt>
      <trkpt lat="46.566278" lon="8.430432">
        <time>1970-01-01T00:00:00+00:00</time>
        <ele>2536.0</ele>
      </trkpt>
      <trkpt lat="46.566593" lon="8.429503">
        <time>1970-01-01T00:00:00+00:00</time>
        <ele>2524.0</ele>
      </trkpt>
      <trkpt lat="46.566637" lon="8.428919">
        <time>1970-01-01T00:00:00+00:00</time>
        <ele>2524.0</ele>
      </trkpt>
      <trkpt lat="46.566788" lon="8.428633">
        <time>1970-01-01T00:00:00+00:00</time>
        <ele>2516.0</ele>
      </trkpt>
      <trkpt lat="46.566816" lon="8.428475">
        <time>1970-01-01T00:00:00+00:00</time>
        <ele>2514.0</ele>
      </trkpt>
      <trkpt lat="46.56678" lon="8.428327">
        <time>1970-01-01T00:00:00+00:00</time>
        <ele>2516.0</ele>
      </trkpt>
      <trkpt lat="46.566962" lon="8.427728">
        <time>1970-01-01T00:00:00+00:00</time>
        <ele>2505.0</ele>
      </trkpt>
      <trkpt lat="46.567072" lon="8.427115">
        <time>1970-01-01T00:00:00+00:00</time>
        <ele>2500.0</ele>
      </trkpt>
      <trkpt lat="46.567459" lon="8.426363">
        <time>1970-01-01T00:00:00+00:00</time>
        <ele>2490.0</ele>
      </trkpt>
      <trkpt lat="46.567754" lon="8.425981">
        <time>1970-01-01T00:00:00+00:00</time>
        <ele>2480.0</ele>
      </trkpt>
      <trkpt lat="46.567851" lon="8.425598">
        <time>1970-01-01T00:00:00+00:00</time>
        <ele>2482.0</ele>
      </trkpt>
      <trkpt lat="46.568413" lon="8.424472">
        <time>1970-01-01T00:00:00+00:00</time>
        <ele>2471.0</ele>
      </trkpt>
      <trkpt lat="46.568638" lon="8.424263">
        <time>1970-01-01T00:00:00+00:00</time>
        <ele>2464.0</ele>
      </trkpt>
      <trkpt lat="46.56912" lon="8.423985">
        <time>1970-01-01T00:00:00+00:00</time>
        <ele>2458.0</ele>
      </trkpt>
      <trkpt lat="46.569509" lon="8.423929">
        <time>1970-01-01T00:00:00+00:00</time>
        <ele>2454.0</ele>
      </trkpt>
      <trkpt lat="46.569786" lon="8.423558">
        <time>1970-01-01T00:00:00+00:00</time>
        <ele>2457.0</ele>
      </trkpt>
      <trkpt lat="46.569756" lon="8.423523">
        <time>1970-01-01T00:00:00+00:00</time>
        <ele>2460.0</ele>
      </trkpt>
      <trkpt lat="46.570032" lon="8.423323">
        <time>1970-01-01T00:00:00+00:00</time>
        <ele>2452.0</ele>
      </trkpt>
      <trkpt lat="46.570516" lon="8.422763">
        <time>1970-01-01T00:00:00+00:00</time>
        <ele>2446.0</ele>
      </trkpt>
      <trkpt lat="46.570769" lon="8.422583">
        <time>1970-01-01T00:00:00+00:00</time>
        <ele>2440.0</ele>
      </trkpt>
      <trkpt lat="46.570912" lon="8.422343">
        <time>1970-01-01T00:00:00+00:00</time>
        <ele>2440.0</ele>
      </trkpt>
      <trkpt lat="46.570938" lon="8.422162">
        <time>1970-01-01T00:00:00+00:00</time>
        <ele>2442.0</ele>
      </trkpt>
      <trkpt lat="46.571124" lon="8.421815">
        <time>1970-01-01T00:00:00+00:00</time>
        <ele>2436.0</ele>
      </trkpt>
      <trkpt lat="46.571197" lon="8.421574">
        <time>1970-01-01T00:00:00+00:00</time>
        <ele>2435.0</ele>
      </trkpt>
      <trkpt lat="46.571387" lon="8.420441">
        <time>1970-01-01T00:00:00+00:00</time>
        <ele>2437.0</ele>
      </trkpt>
      <trkpt lat="46.571492" lon="8.420241">
        <time>1970-01-01T00:00:00+00:00</time>
        <ele>2434.0</ele>
      </trkpt>
      <trkpt lat="46.571479" lon="8.419927">
        <time>1970-01-01T00:00:00+00:00</time>
        <ele>2439.0</ele>
      </trkpt>
      <trkpt lat="46.571541" lon="8.419614">
        <time>1970-01-01T00:00:00+00:00</time>
        <ele>2438.0</ele>
      </trkpt>
      <trkpt lat="46.571472" lon="8.419046">
        <time>1970-01-01T00:00:00+00:00</time>
        <ele>2438.0</ele>
      </trkpt>
      <trkpt lat="46.571491" lon="8.418723">
        <time>1970-01-01T00:00:00+00:00</time>
        <ele>2437.0</ele>
      </trkpt>
      <trkpt lat="46.571798" lon="8.417381">
        <time>1970-01-01T00:00:00+00:00</time>
        <ele>2434.0</ele>
      </trkpt>
      <trkpt lat="46.571771" lon="8.416794">
        <time>1970-01-01T00:00:00+00:00</time>
        <ele>2435.0</ele>
      </trkpt>
      <trkpt lat="46.571791" lon="8.416726">
        <time>1970-01-01T00:00:00+00:00</time>
        <ele>2433.0</ele>
      </trkpt>
      <trkpt lat="46.571881" lon="8.416416">
        <time>1970-01-01T00:00:00+00:00</time>
        <ele>2427.0</ele>
      </trkpt>
      <trkpt lat="46.572134" lon="8.416409">
        <time>1970-01-01T00:00:00+00:00</time>
        <ele>2423.0</ele>
      </trkpt>
      <trkpt lat="46.57193" lon="8.415223">
        <time>1970-01-01T00:00:00+00:00</time>
        <ele>2422.0</ele>
      </trkpt>
      <trkpt lat="46.571928" lon="8.415065">
        <time>1970-01-01T00:00:00+00:00</time>
        <ele>2422.0</ele>
      </trkpt>
      <trkpt lat="46.571965" lon="8.414978">
        <time>1970-01-01T00:00:00+00:00</time>
        <ele>2424.0</ele>
      </trkpt>
      <trkpt lat="46.572021" lon="8.414958">
        <time>1970-01-01T00:00:00+00:00</time>
        <ele>2425.0</ele>
      </trkpt>
      <trkpt lat="46.572113" lon="8.415016">
        <time>1970-01-01T00:00:00+00:00</time>
        <ele>2427.0</ele>
      </trkpt>
      <trkpt lat="46.572189" lon="8.415109">
        <time>1970-01-01T00:00:00+00:00</time>
        <ele>2427.0</ele>
      </trkpt>
      <trkpt lat="46.572296" lon="8.415186">
        <time>1970-01-01T00:00:00+00:00</time>
        <ele>2428.0</ele>
      </trkpt>
    </trkseg>
  </trk>
</gpx>
